Location: Roland
(31.1349°N, 85.4372°W)
Time: 05:02:44
(UTC+00:00)

Courier 1B - Pass Details

Date: 19 April 2021
Orbit: 962 x 1209 km, 28.3° (Epoch: 07 May)

Event Time Altitude Azimuth Distance (km) Brightness Sun altitude
Rises 00:25:57 0° 271° (W) 3,662 12.5 -3.6°
Reaches altitude 10° 00:28:59 10° 259° (WSW) 2,737 11.1 -4.3°
Maximum altitude 00:34:21 26° 204° (SSW) 1,867 9.1 -5.4°
Drops below altitude 10° 00:39:55 10° 151° (SSE) 2,856 9.5 -6.5°
Enters shadow 00:42:33 - 140° (SE) 3,655 10.0 -7.0°
Sets 00:43:11 0° 139° (SE) 3,854 - -7.2°
